H1 CPF  2 ESA 2023  7 14 10 195 01 galileo224
H2  2111602 7224    49810 2023  7 13 23 59 42 2023  7 18 23 59 42   900 1 1  0 0 0  1
H9
10 0 60141  43182.000000  0      10693223.885     -16443549.428      22156979.274
10 0 60141  44082.000000  0      11181040.307     -14442340.841      23281033.095
10 0 60141  44982.000000  0      11843471.118     -12398905.548      24115279.090
10 0 60141  45882.000000  0      12678058.183     -10352693.888      24649308.764
10 0 60141  46782.000000  0      13675800.531      -8342430.883      24876452.417
10 0 60141  47682.000000  0      14821399.356      -6404955.649      24793863.336
10 0 60141  48582.000000  0      16093703.183      -4574121.404      24402554.224
10 0 60141  49482.000000  0      17466339.349      -2879790.491      23707385.358
10 0 60141  50382.000000  0      18908512.085      -1346955.885      22717004.584
10 0 60141  51282.000000  0      20385942.251          4983.331      21443739.860
10 0 60141  52182.000000  0      21861919.271       1162769.869      19903445.662
10 0 60141  53082.000000  0      23298432.293       2119642.401      18115305.136
10 0 60141  53982.000000  0      24657345.073       2875484.978      16101590.469
10 0 60141  54882.000000  0      25901577.690       3436767.130      13887384.483
10 0 60141  55782.000000  0      26996257.967       3816276.668      11500266.939
10 0 60141  56682.000000  0      27909806.414       4032653.734       8969969.548
10 0 60141  57582.000000  0      28614920.623       4109740.923       6328004.041
10 0 60141  58482.000000  0      29089428.160       4075770.087       3607268.048
10 0 60141  59382.000000  0      29316981.221       3962411.555        841633.797
10 0 60141  60282.000000  0      29287571.244       3803715.866      -1934475.115
10 0 60141  61182.000000  0      28997847.417       3634981.431      -4686513.500
10 0 60141  62082.000000  0      28451229.152       3491583.875      -7380245.442
10 0 60141  62982.000000  0      27657809.129       3407803.975      -9982170.800
10 0 60141  63882.000000  0      26634050.088       3415691.086     -12459941.972
10 0 60141  64782.000000  0      25402284.999       3543997.815     -14782765.721
10 0 60141  65682.000000  0      23990036.437       3817219.387     -16921785.064
10 0 60141  66582.000000  0      22429176.577       4254767.825     -18850436.535
10 0 60141  67482.000000  0      20754954.222       4870306.804     -20544778.451
10 0 60141  68382.000000  0      19004919.356       5671267.942     -21983786.239
10 0 60141  69282.000000  0      17217778.863       6658563.628     -23149611.280
10 0 60141  70182.000000  0      15432219.160       7826505.300     -24027800.218
10 0 60141  71082.000000  0      13685732.440       9162929.704     -24607472.172
10 0 60141  71982.000000  0      12013483.075      10649529.141     -24881451.799
10 0 60141  72882.000000  0      10447249.417      12262375.426     -24846356.696
10 0 60141  73782.000000  0       9014473.862      13972621.218     -24502638.153
10 0 60141  74682.000000  0       7737450.646      15747356.916     -23854574.838
10 0 60141  75582.000000  0       6632676.558      17550596.480     -22910219.503
10 0 60141  76482.000000  0       5710384.665      19344361.527     -21681299.389
10 0 60141  77382.000000  0       4974275.492      21089830.018     -20183071.497
10 0 60141  78282.000000  0       4421453.930      22748513.811     -18434134.454
10 0 60141  79182.000000  0       4042573.795      24283428.446     -16456199.197
10 0 60141  80082.000000  0       3822185.465      25660218.740     -14273821.199
10 0 60141  80982.000000  0       3739275.738      26848205.117     -11914097.423
10 0 60141  81882.000000  0       3767983.016      27821317.997      -9406331.650
10 0 60141  82782.000000  0       3878465.472      28558891.069      -6781672.196
10 0 60141  83682.000000  0       4037895.023      29046288.586      -4072726.439
10 0 60141  84582.000000  0       4211546.007      29275347.014      -1313156.844
10 0 60141  85482.000000  0       4363944.426      29244617.120       1462736.529
10 0 60141  86382.000000  0       4460041.708      28959398.817       4220441.888
10 0 60142    882.000000  0       4466376.126      28431567.571       6925664.642
10 0 60142   1782.000000  0       4352185.350      27679197.689       9544754.054
10 0 60142   2682.000000  0       4090435.106      26725994.195      12045122.273
10 0 60142   3582.000000  0       3658731.535      25600550.996      14395650.485
10 0 60142   4482.000000  0       3040088.426      24335458.523      16567077.073
10 0 60142   5382.000000  0       2223525.082      22966288.757      18532362.900
10 0 60142   6282.000000  0       1204475.826      21530489.403      20267029.102
10 0 60142   7182.000000  0        -15001.905      20066221.877      21749463.152
10 0 60142   8082.000000  0      -1426227.629      18611179.498      22961189.297
10 0 60142   8982.000000  0      -3014106.279      17201422.966      23887099.992
10 0 60142   9882.000000  0      -4757538.720      15870269.617      24515645.374
10 0 60142  10782.000000  0      -6630021.652      14647271.318      24838978.378
10 0 60142  11682.000000  0      -8600418.277      13557313.050      24853053.655
10 0 60142  12582.000000  0     -10633875.717      12619860.470      24557678.994
10 0 60142  13482.000000  0     -12692860.572      11848380.054      23956518.586
10 0 60142  14382.000000  0     -14738280.251      11249950.009      23057048.017
10 0 60142  15282.000000  0     -16730655.015      10825074.141      21870461.533
10 0 60142  16182.000000  0     -18631304.045      10567704.500      20411532.692
10 0 60142  17082.000000  0     -20403508.387      10465472.028      18698430.096
10 0 60142  17982.000000  0     -22013614.329      10500117.907      16752490.526
10 0 60142  18882.000000  0     -23432042.632      10648111.964      14597952.275
10 0 60142  19782.000000  0     -24634171.982      10881438.599      12261652.059
10 0 60142  20682.000000  0     -25601068.970      11168525.406       9772689.334
10 0 60142  21582.000000  0     -26320041.768      11475285.174       7162062.254
10 0 60142  22482.000000  0     -26785000.181      11766238.367       4462279.928
10 0 60142  23382.000000  0     -26996610.904      12005680.649       1706955.902
10 0 60142  24282.000000  0     -26962243.238      12158858.630      -1069611.948
10 0 60142  25182.000000  0     -26695707.130      12193116.766      -3832869.756
10 0 60142  26082.000000  0     -26216791.948      12078979.264      -6548438.802
10 0 60142  26982.000000  0     -25550620.657      11791132.960      -9182543.959
10 0 60142  27882.000000  0     -24726839.845      11309280.258     -11702434.080
10 0 60142  28782.000000  0     -23778671.194      10618835.369     -14076789.024
10 0 60142  29682.000000  0     -22741854.273       9711442.021     -16276108.279
10 0 60142  30582.000000  0     -21653513.929       8585296.469     -18273076.373
10 0 60142  31482.000000  0     -20550987.805       7245265.725     -20042900.625
10 0 60142  32382.000000  0     -19470650.750       5702797.382     -21563617.123
10 0 60142  33282.000000  0     -18446772.865       3975623.892     -22816361.290
10 0 60142  34182.000000  0     -17510446.876       2087270.584     -23785599.815
10 0 60142  35082.000000  0     -16688618.239         66382.784     -24459321.231
10 0 60142  35982.000000  0     -16003248.186      -2054106.951     -24829182.942
10 0 60142  36882.000000  0     -15470635.716      -4237945.585     -24890613.001
10 0 60142  37782.000000  0     -15100919.574      -6446630.248     -24642865.493
10 0 60142  38682.000000  0     -14897775.645      -8640549.512     -24089028.919
10 0 60142  39582.000000  0     -14858319.099     -10780159.857     -23235987.532
10 0 60142  40482.000000  0     -14973214.286     -12827160.782     -22094336.077
10 0 60142  41382.000000  0     -15226988.892     -14745632.089     -20678248.991
10 0 60142  42282.000000  0     -15598542.537     -16503098.005     -19005305.593
10 0 60142  43182.000000  0     -16061833.948     -18071485.085     -17096273.338
10 0 60142  44082.000000  0     -16586725.259     -19427944.089     -14974851.712
10 0 60142  44982.000000  0     -17139957.109     -20555510.276     -12667379.807
10 0 60142  45882.000000  0     -17686224.073     -21443581.501     -10202511.081
10 0 60142  46782.000000  0     -18189316.826     -22088199.214      -7610859.213
10 0 60142  47682.000000  0     -18613295.316     -22492123.552      -4924619.356
10 0 60142  48582.000000  0     -18923656.184     -22664700.132      -2177169.391
10 0 60142  49482.000000  0     -19088457.846     -22621522.691        597343.908
10 0 60142  50382.000000  0     -19079367.889     -22383902.071       3364428.703
10 0 60142  51282.000000  0     -18872599.859     -21978158.139       6089676.640
10 0 60142  52182.000000  0     -18449709.918     -21434756.806       8739190.791
10 0 60142  53082.000000  0     -17798228.233     -20787319.155      11280007.619
10 0 60142  53982.000000  0     -16912105.118     -20071533.768      13680507.688
10 0 60142  54882.000000  0     -15791957.704     -19324006.347      15910809.948
10 0 60142  55782.000000  0     -14445109.234     -18581082.779      17943144.632
10 0 60142  56682.000000  0     -12885419.499     -17877682.584      19752200.073
10 0 60142  57582.000000  0     -11132911.548     -17246179.431      21315439.069
10 0 60142  58482.000000  0      -9213206.153     -16715363.915      22613380.799
10 0 60142  59382.000000  0      -7156781.587     -16309521.222      23629844.747
10 0 60142  60282.000000  0      -4998081.725     -16047652.724      24352153.542
10 0 60142  61182.000000  0      -2774500.272     -15942866.017      24771292.147
10 0 60142  62082.000000  0       -525272.806     -16001952.644      24882021.361
10 0 60142  62982.000000  0       1709688.748     -16225166.850      24682944.196
10 0 60142  63882.000000  0       3890982.812     -16606212.391      24176524.230
99